Flag for U.S.A. Weather past 2 weeks in Columbus, Georgia, U.S.A.

Now
42 °F

Clear.


Feels Like: 42 °F
Forecast: 33 / 59 °F
Wind: No wind

Location: Columbus Metropolitan Airport

Current Time: Dec 18, 2014 at 12:45:20 AM

Latest Report: Dec 17, 2014 at 11:51 PM


Visibility: 10 mi

Pressure: 30.16 "Hg

Humidity: 79%

Dew point: 36 °F

Location of ColumbusLocation

Historic Weather in Columbus — Graph

°F

Columbus temperature yesterday

Maximum temperature yesterday: 61 °F (at 3:51 PM)
Minimum temperature yesterday: 37 °F (at 6:51 AM)
Average temperature yesterday: 48 °F

Past Weeks' High & Low Weather Summary

 TemperatureHumidityPressure
High76 °F (Dec 4, 1:51 PM)100% (Dec 6, 4:51 AM)30.36 "Hg (Dec 6, 4:51 AM)
Low32 °F (Dec 11, 5:51 AM)15% (Dec 12, 3:51 PM)29.98 "Hg (Dec 16, 4:51 AM)
Average52 °F66%30.19 "Hg
* Reported Dec 2 10:51 PM — Dec 17 10:51 PM, Columbus, Weather by CustomWeather, © 2014

Note: Actual official high and low records may vary slightly from our data, if they occured in-between our weather recording intervals... More about our weather records

Advertising

Columbus weather history for previous 24 hours

 ConditionsComfort  
Time TempWeatherWind HumidityBarometerVisibility
10:51 PM
Dec 17
43 °FClear.3 mph79%30.17 "Hg10 mi
9:51 PM45 °FClear.8 mph76%30.18 "Hg10 mi
8:51 PM47 °FClear.7 mph74%30.18 "Hg10 mi
7:51 PM50 °FClear.5 mph68%30.18 "Hg10 mi
6:51 PM52 °FClear.3 mph64%30.17 "Hg10 mi
5:51 PM55 °FClear.3 mph55%30.15 "Hg10 mi
4:51 PM58 °FSunny.8 mph47%30.13 "Hg10 mi
3:51 PM61 °FSunny.7 mph42%30.13 "Hg10 mi
2:51 PM60 °FSunny.6 mph44%30.13 "Hg10 mi
1:51 PM58 °FSunny.9 mph47%30.15 "Hg10 mi
12:51 PM56 °FSunny.9 mph49%30.18 "Hg10 mi
11:51 AM53 °FSunny.3 mph55%30.22 "Hg10 mi
10:51 AM50 °FSunny.7 mph61%30.24 "Hg10 mi
9:51 AM45 °FSunny.7 mph74%30.25 "Hg10 mi
8:51 AM41 °FSunny.6 mph82%30.23 "Hg10 mi
7:51 AM38 °FSunny.No wind90%30.22 "Hg10 mi
6:51 AM37 °FClear.No wind93%30.22 "Hg10 mi
5:51 AM39 °FClear.No wind89%30.19 "Hg10 mi
4:51 AM41 °FClear.No wind82%30.19 "Hg10 mi
3:51 AM42 °FClear.5 mph79%30.19 "Hg10 mi
2:51 AM43 °FClear.5 mph79%30.19 "Hg10 mi
1:51 AM44 °FClear.5 mph76%30.18 "Hg10 mi
12:51 AM45 °FClear.5 mph74%30.19 "Hg10 mi
Weather by CustomWeather, © 2014

See weather overviewHow to use our weather pages